Weather in Shargun

Uzbekistan     38°27′56″N   67°57′48″E
В апреле 2022 года жителям России запретили посещать сайт meteo.paraplan.net по решению Генеральной прокуратуры. Аудитория сайта уменьшилась в 10 раз. Владельцы сайта не видят смысла в поддержке погодного сервера в таких условиях. Сайт будет закрыт в октябре.
temp.,
°C
wind,
m/s
gust,
m/s
humid.,
%
clouds,
%
prec.,
mm/h
press.,
hPa
HPBL,
m
3 october, mon
mon323:00+16nne11305 0.0 101511
02:00+15ne1132100 0.0 101411
05:00+15ne113298 0.0 101411
08:00+17e112870 0.0 1015129
11:00+21s322013 0.0 1016998
14:00+24s43170 0.0 10141555
17:00+23ssw33190 0.0 10141068
20:00+17n22270 0.0 101711
4 october, tue
tue423:00+16n22280 0.0 101811
02:00+15n33300 0.0 101819
05:00+15nnw33300 0.0 101821
08:00+19n12230 0.0 101897
11:00+24se32180 0.0 10171446
14:00+26s33130 0.0 10152136
17:00+25s44140 0.0 1015881
20:00+19n32210 0.0 101814
5 october, wed
wed523:00+18n22230 0.0 101912
02:00+17n32240 0.0 101914
05:00+16n32240 0.0 101914
08:00+20ne12200 0.0 1020108
11:00+24sse32160 0.0 10191013
14:00+26s53130 0.0 10162378
17:00+24ssw44140 0.0 10161068
20:00+18nne33210 0.0 101816
6 october, thu
thu623:00+17nne22220 0.0 101812
02:00+16n32240 0.0 101813
05:00+15n32250 0.0 101813
08:00+18ne11200 0.0 1019103
11:00+22s32130 0.0 10191070
14:00+24s5390 0.0 10171814
17:00+22ssw4483 0.0 1016681
20:00+16nne22122 0.0 101911
7 october, fri
fri723:00+14nne11170 0.0 102011
02:00+13nne22230 0.0 101911
05:00+13nne22280 0.0 101912
08:00+17ne11200 0.0 102090
11:00+21s22140 0.0 1019713
14:00+25s4390 0.0 10171627
17:00+24ssw3490 0.0 1017312
20:00+17nne22130 0.0 102011